• In Latvia
  • List of Countries
  • For 7 days
  • Water Temperature
  • Satellite Maps
  • Weather Map
  • Weather Widgets
  • user-avatar
    Login

    Hourly Weather Andora

    Today, 22 May, Monday

    Time Temperature Precipitation Wind Pressure Humidity
    00:00 +8°C° 0 mm 2 mps 625 mmHg 77%
    01:00 +8°C° 0 mm 1 mps 624 mmHg 78%
    02:00 +8°C° 0 mm 1 mps 624 mmHg 80%
    03:00 +7°C° 0 mm 1 mps 624 mmHg 81%
    04:00 +8°C° 0.1 mm 1 mps 624 mmHg 78%
    05:00 +10°C° 0.1 mm 1 mps 625 mmHg 75%
    06:00 +12°C° 0 mm 1 mps 626 mmHg 67%
    07:00 +14°C° 0.1 mm 1 mps 627 mmHg 60%
    08:00 +15°C° 0.1 mm 1 mps 628 mmHg 53%
    09:00 +18°C° 0.1 mm 1 mps 628 mmHg 46%
    10:00 +19°C° 0.4 mm 1 mps 629 mmHg 46%
    11:00 +20°C° 0.4 mm 1 mps 629 mmHg 47%
    12:00 +20°C° 0.4 mm 2 mps 629 mmHg 47%
    13:00 +19°C° 1.2 mm 2 mps 629 mmHg 51%
    14:00 +19°C° 1.2 mm 1 mps 628 mmHg 55%
    15:00 +19°C° 1.2 mm 1 mps 628 mmHg 60%
    16:00 +16°C° 1.2 mm 1 mps 628 mmHg 67%
    17:00 +15°C° 1.2 mm 1 mps 627 mmHg 74%
    18:00 +14°C° 1.2 mm 1 mps 627 mmHg 82%
    19:00 +12°C° 1.2 mm 1 mps 627 mmHg 85%
    20:00 +11°C° 1.2 mm 1 mps 627 mmHg 88%
    21:00 +10°C° 1.2 mm 1 mps 627 mmHg 92%
    22:00 +9°C° 0.5 mm 1 mps 627 mmHg 92%
    23:00 +9°C° 0.5 mm 1 mps 627 mmHg 92%

    Tomorrow, 23 May, Tuesday

    Time Temperature Precipitation Wind Pressure Humidity
    00:00 +9°C° 0.5 mm 1 mps 627 mmHg 92%
    01:00 +8°C° 0.1 mm 1 mps 626 mmHg 92%
    02:00 +8°C° 0.1 mm 1 mps 626 mmHg 93%
    03:00 +7°C° 0.1 mm 1 mps 626 mmHg 94%
    04:00 +8°C° 0 mm 1 mps 627 mmHg 91%
    05:00 +9°C° 0 mm 1 mps 627 mmHg 88%
    06:00 +10°C° 0 mm 1 mps 628 mmHg 85%
    07:00 +12°C° 0 mm 1 mps 629 mmHg 77%
    08:00 +14°C° 0 mm 1 mps 630 mmHg 68%
    09:00 +16°C° 0 mm 1 mps 631 mmHg 60%
    10:00 +18°C° 0.1 mm 1 mps 631 mmHg 58%
    11:00 +19°C° 0.1 mm 1 mps 631 mmHg 56%
    12:00 +19°C° 0.1 mm 2 mps 631 mmHg 54%
    13:00 +19°C° 0.4 mm 1 mps 631 mmHg 56%
    14:00 +19°C° 0.4 mm 1 mps 630 mmHg 59%
    15:00 +18°C° 0.4 mm 1 mps 630 mmHg 62%
    16:00 +16°C° 0.2 mm 1 mps 630 mmHg 66%
    17:00 +15°C° 0.2 mm 1 mps 629 mmHg 71%
    18:00 +15°C° 0.2 mm 1 mps 629 mmHg 75%
    19:00 +13°C° 0 mm 1 mps 629 mmHg 80%
    20:00 +11°C° 0 mm 1 mps 628 mmHg 85%
    21:00 +9°C° 0 mm 1 mps 628 mmHg 90%
    22:00 +8°C° 0 mm 2 mps 628 mmHg 88%
    23:00 +8°C° 0 mm 2 mps 628 mmHg 85%

    Day after tomorrow, 24 May, Wednesday

    Time Temperature Precipitation Wind Pressure Humidity
    00:00 +7°C° 0 mm 2 mps 627 mmHg 82%
    01:00 +7°C° 0 mm 2 mps 627 mmHg 81%
    02:00 +6°C° 0 mm 2 mps 627 mmHg 80%
    03:00 +7°C° 0 mm 1 mps 626 mmHg 80%
    04:00 +8°C° 0 mm 1 mps 627 mmHg 77%
    05:00 +10°C° 0 mm 1 mps 628 mmHg 75%
    06:00 +11°C° 0 mm 1 mps 628 mmHg 73%
    07:00 +14°C° 0 mm 1 mps 629 mmHg 64%
    08:00 +16°C° 0 mm 1 mps 630 mmHg 56%
    09:00 +19°C° 0 mm 1 mps 631 mmHg 48%
    10:00 +20°C° 0 mm 1 mps 631 mmHg 45%
    11:00 +21°C° 0 mm 1 mps 631 mmHg 42%
    12:00 +22°C° 0 mm 1 mps 631 mmHg 40%
    13:00 +22°C° 0 mm 1 mps 631 mmHg 42%
    14:00 +22°C° 0 mm 1 mps 630 mmHg 44%
    15:00 +20°C° 0 mm 2 mps 630 mmHg 46%
    16:00 +20°C° 0 mm 1 mps 629 mmHg 54%
    17:00 +19°C° 0 mm 1 mps 629 mmHg 61%
    18:00 +16°C° 0 mm 1 mps 628 mmHg 68%
    19:00 +14°C° 0 mm 1 mps 627 mmHg 74%
    20:00 +12°C° 0 mm 1 mps 627 mmHg 80%
    21:00 +10°C° 0 mm 1 mps 626 mmHg 87%
    22:00 +10°C° 0 mm 1 mps 626 mmHg 87%
    23:00 +9°C° 0 mm 1 mps 626 mmHg 88%

    25 May, Thursday

    Time Temperature Precipitation Wind Pressure Humidity
    00:00 +9°C° 0 mm 1 mps 625 mmHg 89%
    01:00 +8°C° 0 mm 1 mps 625 mmHg 88%
    02:00 +8°C° 0 mm 1 mps 624 mmHg 88%
    03:00 +8°C° 0 mm 1 mps 624 mmHg 88%
    04:00 +10°C° 0 mm 1 mps 625 mmHg 83%
    05:00 +12°C° 0 mm 1 mps 626 mmHg 78%
    06:00 +13°C° 0 mm 1 mps 626 mmHg 74%
    07:00 +16°C° 0 mm 1 mps 627 mmHg 64%
    08:00 +19°C° 0 mm 1 mps 628 mmHg 54%
    09:00 +21°C° 0 mm 1 mps 629 mmHg 44%
    10:00 +22°C° 0 mm 1 mps 629 mmHg 42%
    11:00 +23°C° 0 mm 1 mps 629 mmHg 40%
    12:00 +24°C° 0 mm 2 mps 629 mmHg 38%
    13:00 +23°C° 0 mm 2 mps 629 mmHg 40%
    14:00 +23°C° 0 mm 2 mps 629 mmHg 43%
    15:00 +21°C° 0 mm 2 mps 628 mmHg 45%
    16:00 +20°C° 0 mm 2 mps 628 mmHg 51%
    17:00 +19°C° 0 mm 2 mps 627 mmHg 56%
    18:00 +18°C° 0 mm 2 mps 627 mmHg 62%
    19:00 +15°C° 0 mm 1 mps 626 mmHg 70%
    20:00 +13°C° 0 mm 1 mps 626 mmHg 77%
    21:00 +11°C° 0 mm 1 mps 625 mmHg 85%
    22:00 +10°C° 0 mm 1 mps 625 mmHg 85%
    23:00 +10°C° 0 mm 1 mps 625 mmHg 85%

    26 May, Friday

    Time Temperature Precipitation Wind Pressure Humidity
    00:00 +10°C° 0 mm 1 mps 625 mmHg 85%
    01:00 +10°C° 0 mm 1 mps 624 mmHg 85%
    02:00 +9°C° 0 mm 1 mps 624 mmHg 85%
    03:00 +9°C° 0 mm 1 mps 624 mmHg 85%
    04:00 +10°C° 0 mm 1 mps 625 mmHg 82%
    05:00 +12°C° 0 mm 1 mps 625 mmHg 78%
    06:00 +13°C° 0 mm 1 mps 626 mmHg 74%
    07:00 +15°C° 0 mm 1 mps 627 mmHg 66%
    08:00 +19°C° 0 mm 1 mps 627 mmHg 57%
    09:00 +21°C° 0 mm 1 mps 628 mmHg 49%
    10:00 +21°C° 0.3 mm 2 mps 628 mmHg 47%
    11:00 +21°C° 0.3 mm 2 mps 628 mmHg 46%
    12:00 +23°C° 0.3 mm 2 mps 628 mmHg 44%
    13:00 +23°C° 0.5 mm 2 mps 628 mmHg 45%
    14:00 +23°C° 0.5 mm 2 mps 628 mmHg 45%
    15:00 +23°C° 0.5 mm 2 mps 627 mmHg 46%
    16:00 +20°C° 0.3 mm 2 mps 627 mmHg 51%
    17:00 +19°C° 0.3 mm 2 mps 626 mmHg 57%
    18:00 +18°C° 0.3 mm 2 mps 626 mmHg 63%
    19:00 +16°C° 0.1 mm 2 mps 625 mmHg 70%
    20:00 +13°C° 0.1 mm 1 mps 625 mmHg 77%
    21:00 +11°C° 0.1 mm 1 mps 624 mmHg 83%
    22:00 +11°C° 0.1 mm 1 mps 624 mmHg 83%
    23:00 +10°C° 0.1 mm 1 mps 624 mmHg 84%

    27 May, Saturday

    Time Temperature Precipitation Wind Pressure Humidity
    00:00 +10°C° 0.1 mm 1 mps 624 mmHg 84%
    01:00 +10°C° 0 mm 1 mps 624 mmHg 83%
    02:00 +10°C° 0 mm 1 mps 624 mmHg 83%
    03:00 +9°C° 0 mm 1 mps 624 mmHg 83%
    04:00 +11°C° 0 mm 1 mps 624 mmHg 79%
    05:00 +12°C° 0 mm 1 mps 625 mmHg 75%
    06:00 +13°C° 0 mm 1 mps 626 mmHg 71%
    07:00 +15°C° 0 mm 1 mps 626 mmHg 62%
    08:00 +17°C° 0 mm 2 mps 627 mmHg 54%
    09:00 +19°C° 0 mm 2 mps 628 mmHg 45%
    10:00 +20°C° 0.1 mm 2 mps 629 mmHg 44%
    11:00 +21°C° 0.1 mm 2 mps 629 mmHg 43%
    12:00 +22°C° 0.1 mm 3 mps 629 mmHg 42%
    13:00 +21°C° 0.3 mm 3 mps 629 mmHg 44%
    14:00 +21°C° 0.3 mm 2 mps 629 mmHg 46%
    15:00 +21°C° 0.3 mm 2 mps 629 mmHg 47%
    16:00 +20°C° 0.2 mm 2 mps 628 mmHg 53%
    17:00 +18°C° 0.2 mm 2 mps 628 mmHg 59%
    18:00 +17°C° 0.2 mm 2 mps 628 mmHg 64%
    19:00 +15°C° 0.2 mm 1 mps 627 mmHg 70%
    20:00 +13°C° 0.2 mm 1 mps 627 mmHg 77%
    21:00 +11°C° 0.2 mm 1 mps 627 mmHg 83%
    22:00 +11°C° 0.1 mm 1 mps 627 mmHg 84%
    23:00 +10°C° 0.1 mm 1 mps 627 mmHg 84%
    Show more